Simultaneous Nadir Overpasses (SNOs) Predictions

Prediction of SNOs between AQUA and GOES-15 Satellite Orbit:

Table of predicted SNOs for the next 14.0 days since TLE Epoch: 8/26/2022
Index Date Time (AQUA) AQUA Lat,Lon GOES-15 Lat,Lon Distance(km) Time Diff (sec)
1 08/26/2022 22:13:02 -0.45,-128.18 -0.39,-127.98 22.74 80
2 08/28/2022 22:00:22 0.25,-125.10 -0.38,-127.96 325.44 80
3 08/29/2022 10:21:30 0.83,-130.22 0.38,-127.98 254.61 80
4 08/31/2022 10:08:49 0.19,-127.13 0.38,-127.95 92.78 80
5 08/31/2022 22:30:04 -1.33,-132.28 -0.38,-127.90 498.57 80
6 09/02/2022 09:56:08 -0.45,-124.05 0.38,-127.91 439.38 80
7 09/02/2022 22:17:23 -0.68,-129.20 -0.38,-127.86 151.99 80
8 09/04/2022 22:04:43 -0.01,-126.11 -0.37,-127.82 193.57 80
9 09/05/2022 10:25:50 1.10,-131.24 0.37,-127.84 385.86 80
10 09/07/2022 10:13:09 0.43,-128.15 0.36,-127.79 41.19 80
11 09/09/2022 10:00:28 -0.24,-125.07 0.36,-127.73 303.57 80
